Regional Weather Roundup
Issued by NWS

Home | Current Version | Previous Version | Graphics & Text | Print | Product List | Glossary On
Versions: 1 2 3 4 5 6 7 8 9 10 11 12 13 14 15 16 17 18 19 20 21 22 23 24 25 26 27 28 29 30 31 32 33 34 35 36 37 38 39 40 41 42 43 44 45 46 47 48 49 50
045
ASUS43 KTOP 241608
RWRKS

WEATHER ROUNDUP FOR KANSAS
NATIONAL WEATHER SERVICE GOODLAND KS
1100 AM CDT SAT JUN 24 2017

NOTE:  "FAIR" INDICATES FEW OR NO CLOUDS BELOW 12,000 FEET WITH NO
SIGNIFICANT WEATHER AND/OR OBSTRUCTIONS TO VISIBILITY.

KSZ001>006-013>018-027>032-041>047-241700-
NORTHWEST KANSAS

CITY           SKY/WX    TMP DP  RH WIND       PRES   REMARKS
GOODLAND       CLOUDY    64  51  62 SE14      30.30S
HAYS           PTSUNNY   71  49  45 E8        30.29S
HILL CITY      CLOUDY    69  49  48 SE8       30.30S
RUSSELL        CLOUDY    72  42  34 SE8G23    30.28R
$$

KSZ061>065-074>080-084>089-241700-
SOUTHWEST KANSAS

CITY           SKY/WX    TMP DP  RH WIND       PRES   REMARKS
DODGE CITY     PTSUNNY   72  52  49 SE14      30.29R
ELKHART          N/A     68  44  42 SE10        N/A
GARDEN CITY    CLOUDY    71  51  49 S12       30.28S
GREAT BEND     MOSUNNY   73  49  42 E10       30.28S
LIBERAL        CLOUDY    72  50  45 E14       30.29F
PRATT          MOSUNNY   74  47  38 S10G20    30.28S
$$

KSZ066>073-081>083-090>101-241700-
SOUTHEAST KANSAS

CITY           SKY/WX    TMP DP  RH WIND       PRES   REMARKS
COFFEYVILLE    SUNNY     78  49  35 NE8       30.24R
HUTCHINSON     SUNNY     76  48  37 E7        30.27S
MEDICINE LODGE   N/A     74  52  46 SE8       30.26F
NEWTON         SUNNY     74  49  41 CALM      30.28S
PARSONS        SUNNY     77  51  40 NE7       30.25R
WICHITA INTL   CLOUDY    73  53  49 S7        30.27S
WICHITA JABRA  SUNNY     73  52  47 VRB3      30.27S
WICHITA MCCONL LGT RAIN  73  52  46 S3        30.27S
WINFIELD       SUNNY     77  50  38 CALM      30.27R
$$

KSZ007>012-019>026-033>040-048>060-102>105-241700-
NORTHEAST KANSAS

CITY           SKY/WX    TMP DP  RH WIND       PRES   REMARKS
CONCORDIA      PTSUNNY   73  38  27 CALM      30.26S
EMPORIA        SUNNY     73  46  38 NE10      30.25F
LAWRENCE       SUNNY     74  43  32 NW7       30.25R
MANHATTAN      SUNNY     74  39  28 VRB5      30.26S
MARYSVILLE     SUNNY     73  37  27 NW6       30.25S
OLATHE IND     SUNNY     73  43  33 NW9       30.26R
OLATHE EXE     SUNNY     72  38  29 N13       30.25R
SALINA         CLOUDY    75  46  35 VRB5      30.28R
TOPEKA BILLARD SUNNY     74  45  35 E3        30.25S
TOPEKA FORBES  SUNNY     75  42  30 CALM      30.26R
$$




USA.gov is the U.S. government's official web portal to all federal, state and local government web resources and services.